Starlink 30572

operational
NORAD ID: 58114 Int'l Des: 2023-161 Owner: SPXS Country: US Constellation: starlink
LEOCIRCULAR

Starlink 30572について

説明を読み込み中...

リアルタイム位置

3D地球を読み込み中...

次回通過

高度履歴

Altitude vs Time

uPlot chart will show altitude changes over time

軌道要素

1 58114U 23161T 25347.62452889 .00002445 00000-0 94638-4 0 9996
2 58114 53.1597 205.3630 0001130 72.8283 287.2841 15.30202833121244
Epoch: Dec 13, 2025 • Age: 15 hours

現在のステータス

高度 480.8 km
速度 7.63 km/s
衛星直下点 52.15°N, 142.92°E
打ち上げ日 Oct 21, 2023
運用期間 2.1 years
タイプ internet

技術仕様

分類 Payload
質量 730.00 kg
乾燥質量 700.00 kg
総質量 730.00 kg
長さ 0.30 m
直径 4.10 m
スパン 29.00 m
形状 Box + pan
製造者 SPXS
バスタイプ Starlink V2M
フェーズステータス In Orbit
所有者/国 SPXS/US

大規模コンステレーション

Loading constellations...